DW3411 Weather Reports


Display with metric or nautical units.
time (UTC)temp
F
wind
direction
speed
MPH
gust
MPH
rain 1hr
in
rain 24hr
in
rain mn
in
humidity
%
barometer
mb
20190216190154 57 57 3.0 0.0 0.00 0.00 0.21 67 1002.1
20190216184604 57 71 4.0 0.0 0.00 0.00 0.21 66 1002.0
20190216183125 56 71 4.0 0.0 0.00 0.00 0.21 68 1002.1
20190216181649 56 50 3.0 0.0 0.00 0.00 0.21 69 1002.3
20190216180121 57 67 5.0 0.0 0.00 0.00 0.21 67 1002.3
20190216174544 56 51 4.0 0.0 0.00 0.00 0.21 70 1002.3
20190216173114 56 71 6.0 0.0 0.00 0.00 0.21 68 1002.6
20190216171649 56 80 5.0 0.0 0.00 0.00 0.21 71 1002.7
20190216170114 57 87 5.0 0.0 0.00 0.00 0.21 70 1002.8
20190216164546 56 68 4.0 0.0 0.00 0.00 0.21 71 1003.1
20190216163037 56 103 4.0 0.0 0.00 0.00 0.21 72 1002.7
20190216161545 56 113 4.0 0.0 0.00 0.00 0.21 70 1002.7
20190216160041 55 116 3.0 0.0 0.00 0.00 0.21 71 1002.6
20190216154531 55 66 4.0 0.0 0.00 0.00 0.21 71 1002.7
20190216153054 54 68 4.0 0.0 0.00 0.00 0.21 75 1002.5
20190216151537 53 59 6.0 0.0 0.00 0.00 0.21 76 1002.7
20190216150031 52 48 6.0 0.0 0.00 0.00 0.21 76 1002.7
20190216144539 52 35 5.0 0.0 0.00 0.00 0.21 77 1002.8
20190216143024 52 57 4.0 0.0 0.00 0.00 0.21 80 1002.4
20190216141520 51 53 2.0 0.0 0.00 0.00 0.21 87 1002.4
20190216140014 50 10 2.0 0.0 0.00 0.00 0.21 93 1002.3
20190216134512 49 32 4.0 0.0 0.00 0.00 0.21 98 1002.2
20190216133001 49 53 3.0 0.0 0.00 0.00 0.21 99 1002.1
20190216131725 48 29 2.0 0.0 0.00 0.00 0.21 99 1001.8
20190216130200 48 18 3.0 0.0 0.00 0.00 0.21 99 1001.4
20190216124729 48 74 2.0 0.0 0.00 0.00 0.21 99 1001.4
20190216123127 49 73 1.0 0.0 0.00 0.00 0.21 99 1000.7
20190216121714 49 70 1.0 0.0 0.00 0.00 0.21 99 1000.8
20190216120244 49 86 0.0 0.0 0.00 0.00 0.21 99 1001.2
20190216114639 49 99 0.0 0.0 0.00 0.00 0.21 99 1000.7
20190216113129 48 238 0.0 0.0 0.00 0.00 0.21 99 1000.6
20190216111614 48 238 0.0 0.0 0.00 0.00 0.21 99 1000.0
20190216110159 48 238 0.0 0.0 0.00 0.00 0.20 99 999.8
20190216104626 48 238 0.0 0.0 0.00 0.00 0.20 99 999.4
20190216103150 48 238 0.0 0.0 0.00 0.00 0.20 99 999.4
20190216101655 48 238 0.0 0.0 0.00 0.00 0.19 99 999.3
20190216100129 48 238 0.0 0.0 0.00 0.00 0.17 99 999.4
20190216094621 48 238 0.0 0.0 0.00 0.00 0.16 99 999.3
20190216093140 48 238 0.0 0.0 0.00 0.00 0.14 99 999.5
20190216091606 48 238 0.0 0.0 0.00 0.00 0.12 99 999.8
20190216090251 48 238 0.0 0.0 0.00 0.00 0.12 99 999.8
20190216084623 49 238 0.0 0.0 0.00 0.00 0.11 99 999.9
20190216083130 49 238 0.0 0.0 0.00 0.00 0.09 99 1000.2
20190216081650 49 238 0.0 0.0 0.00 0.00 0.06 98 1000.7
20190216080055 49 238 0.0 0.0 0.00 0.00 0.05 98 1000.8
20190216074558 49 238 0.0 0.0 0.00 0.00 0.05 98 1001.2
20190216073117 49 238 0.0 0.0 0.00 0.00 0.03 98 1001.5
20190216071553 49 238 0.0 0.0 0.00 0.00 0.02 98 1001.6
20190216070057 49 238 0.0 0.0 0.00 0.00 0.02 98 1001.9
20190216064611 49 238 0.0 0.0 0.00 0.00 0.02 98 1002.0
20190216063124 49 238 0.0 0.0 0.00 0.00 0.01 98 1002.5
20190216061605 49 238 0.0 0.0 0.00 0.00 0.01 98 1002.4
20190216060048 49 238 0.0 0.0 0.00 0.00 0.00 98 1002.8
20190216054531 49 238 0.0 0.0 0.00 0.00 0.00 98 1002.9
20190216053121 49 238 0.0 0.0 0.00 0.00 0.02 98 1003.2
20190216051607 49 238 0.0 0.0 0.00 0.00 0.02 98 1003.5
20190216050049 49 238 0.0 0.0 0.00 0.00 0.02 98 1003.2
20190216044602 50 238 0.0 0.0 0.00 0.00 0.02 97 1003.5
20190216043053 50 238 0.0 0.0 0.00 0.00 0.02 97 1003.8
20190216041547 50 238 0.0 0.0 0.00 0.00 0.02 97 1003.9
20190216040052 50 238 0.0 0.0 0.00 0.00 0.02 97 1003.8
20190216034551 50 238 0.0 0.0 0.00 0.00 0.02 97 1004.3
20190216033041 50 238 0.0 0.0 0.00 0.00 0.02 97 1004.6
20190216031534 50 238 0.0 0.0 0.00 0.00 0.02 96 1004.9
20190216030043 50 238 0.0 0.0 0.00 0.00 0.02 96 1005.1
20190216024543 50 238 0.0 0.0 0.00 0.00 0.02 96 1005.1
20190216023039 51 238 0.0 0.0 0.00 0.00 0.02 96 1005.4
20190216021541 51 238 0.0 0.0 0.00 0.00 0.02 95 1005.4
20190216020051 51 238 0.0 0.0 0.00 0.00 0.01 95 1005.6
20190216014539 51 238 0.0 0.0 0.00 0.00 0.01 95 1005.9
20190216013057 51 238 0.0 0.0 0.00 0.00 0.01 94 1006.0
20190216011601 51 238 0.0 0.0 0.00 0.00 0.01 94 1005.8
20190216010039 52 238 0.0 0.0 0.00 0.00 0.01 92 1005.5
20190216004558 52 238 0.0 0.0 0.00 0.00 0.01 90 1005.6
20190216003021 52 238 0.0 0.0 0.00 0.00 0.01 89 1005.6
20190216001518 53 238 3.0 0.0 0.00 0.00 0.00 87 1005.6
20190216000050 54 258 4.0 0.0 0.00 0.00 0.00 84 1005.5
20190215234540 55 246 4.0 0.0 0.00 0.00 0.00 79 1005.1
20190215233012 56 225 2.0 0.0 0.00 0.00 0.00 75 1004.9
20190215231518 56 223 2.0 0.0 0.00 0.00 0.00 73 1004.8
20190215230013 56 223 1.0 0.0 0.00 0.00 0.00 72 1004.2
20190215224517 56 223 2.0 0.0 0.00 0.00 0.00 71 1004.3
20190215223037 56 223 5.0 0.0 0.00 0.00 0.00 71 1004.7
20190215221512 57 232 6.0 0.0 0.00 0.00 0.00 70 1004.7
20190215220012 57 231 7.0 0.0 0.00 0.00 0.00 70 1004.7
20190215214533 57 225 7.0 0.0 0.00 0.00 0.00 69 1004.9
20190215213023 58 251 6.0 0.0 0.00 0.00 0.00 68 1005.0
20190215211524 58 233 6.0 0.0 0.00 0.00 0.00 68 1005.0
20190215210021 58 226 8.0 0.0 0.00 0.00 0.00 68 1005.1
20190215204533 58 236 7.0 0.0 0.00 0.00 0.00 67 1005.0
20190215203011 58 227 9.0 0.0 0.00 0.00 0.00 66 1004.8
20190215201509 59 223 7.0 0.0 0.00 0.00 0.00 65 1004.6
20190215200022 59 229 6.0 0.0 0.00 0.00 0.00 65 1004.6
20190215194516 59 277 7.0 0.0 0.00 0.00 0.00 65 1004.6
20190215193014 60 245 10.0 0.0 0.00 0.00 0.00 63 1004.4
20190215191504 60 231 11.0 0.0 0.00 0.00 0.00 64 1004.2